Regional Weather Roundup
Issued by NWS

Home | Current Version | Previous Version | Graphics & Text | Print | Product List | Glossary On
Versions: 1 2 3 4 5 6 7 8 9 10 11 12 13 14 15 16 17 18 19 20 21 22 23 24 25 26 27 28 29 30 31 32 33 34 35 36 37 38 39 40 41 42 43 44 45 46 47 48 49 50
539
ASUS45 KBOU 181310
RWRCO

WEATHER ROUNDUP FOR COLORADO
NATIONAL WEATHER SERVICE DENVER/BOULDER CO
600 AM MST SAT NOV 18 2017

NOTE: "FAIR" INDICATES FEW OR NO CLOUDS BELOW 12000 FEET WITH NO
SIGNIFICANT WEATHER AND/OR OBSTRUCTIONS TO VISIBILITY.

COZ001>005-013-030-031-181400-
...NORTHWEST COLORADO...

CITY           SKY/WX    TMP DP  RH WIND       PRES   REMARKS
CRAIG          FAIR       9   5  84 CALM      30.36R
HAYDEN         CLOUDY    18  14  84 S3        30.36R
MEEKER         FAIR       8   5  87 MISG      30.36R
RABBIT EARS PA CLOUDY   N/A N/A N/A W12G22    30.18R
STEAMBOAT SPGS FAIR      18  13  82 SW3       30.33R
WALDEN         FAIR       9   3  78 SE6       30.25R WCI  -1
$$

COZ006>008-011-181400-
...WEST CENTRAL VALLEYS...

CITY           SKY/WX    TMP DP  RH WIND       PRES   REMARKS
GRAND JUNCTION FAIR      20  14  77 E3        30.39R
MONTROSE       FAIR      23  17  78 SE7       30.40R WCI  15
EAGLE          FAIR      15  11  83 SE5       30.39R WCI   8
RIFLE          FAIR      18  14  84 SE6       30.40R WCI  10
DELTA          FAIR      26  19  73 N5        30.39R WCI  21
NUCLA          FAIR      27  14  59 CALM      30.38S
$$

COZ017>023-064>068-181400-
...SOUTHWEST COLORADO...

CITY           SKY/WX    TMP DP  RH WIND       PRES   REMARKS
DURANGO        FAIR      23  12  62 CALM      30.22R
CORTEZ         FAIR      26  12  55 NW10      30.29R WCI  16
PAGOSA SPRINGS FAIR      24  10  56 E5        30.22R WCI  18
TELLURIDE      NOT AVBL
WOLF CREEK PAS FAIR      12  -9  37 NW7G17    30.22R WCI   2
$$

COZ009-010-012-014-032>034-037-058>063-181400-
...CENTRAL COLORADO...

CITY           SKY/WX    TMP DP  RH WIND       PRES   REMARKS
ASPEN          FAIR      13   9  84 SW5       30.32R WCI   5
BUENA VISTA    FAIR      21   7  56 N21G31    30.21R WCI   5
COPPER MTN     CLOUDY     5   0  78 MISG      30.18R
BERTHOUD PASS  HVY SNOW  -2 -13  60 NW32G43   30.05R VSB 1/4 WCI -30
COTTONWOOD PAS FAIR      23  -2  33 W20G31    30.14R WCI   8
GUNNISON       FAIR      14  10  84 CALM      30.32R
KREMMLING      LGT SNOW  27  16  63 W6        30.33R WCI  20
LEADVILLE      CLOUDY     4  -1  80 N8        30.22R WCI  -9
MONARCH PASS     N/A      3   0  85 SW33G43   30.21R WCI -23
SALIDA         FAIR      22  12  65 N5        30.29R WCI  16
SUNLIGHT       CLOUDY   N/A N/A N/A MISG      30.28R
WILKERSON PASS   N/A      7  -2  66 W6        30.12R WCI  -3
$$

COZ069>075-181400-
...SAN LUIS VALLEY/SANGRE DE CRISTO MOUNTAINS...

CITY           SKY/WX    TMP DP  RH WIND       PRES   REMARKS
ALAMOSA        FAIR      22   7  52 N20       30.21R WCI   7
DEL NORTE      FAIR      18   5  56 CALM      30.21R
LA VETA PASS   FAIR      16   5  62 SW12G17     N/A  WCI   3
SAGUACHE       FAIR      21   9  58 N21G30    30.21R WCI   6
$$

COZ035-036-038>040-181400-
...NORTHERN COLORADO FRONT RANGE...

CITY           SKY/WX    TMP DP  RH WIND       PRES   REMARKS
DENVER INTL AP FAIR      28  19  69 SW9       30.17R WCI  19
DMNS CITY PARK   N/A     30  10  43 N3        30.18R
AURORA         PTCLDY    28  20  73 W3        30.17R
FRONT RANGE AP FAIR      28  22  81 W10       30.17S WCI  18
ERIE MUNI ARPT FAIR      28  21  76 S5        30.22S WCI  23
BOULDER MUN AP FAIR      30  19  64 CALM      30.15R
CENTENNIAL     FAIR      28  13  53 NW8       30.16R WCI  20
BROOMFIELD     PTCLDY    27  12  54 W12       30.16R WCI  16
FORT COLLINS   FAIR      31  15  52 N16       30.15R WCI  20
LONGMONT       FAIR      32  22  67 SE6       30.18R WCI  26
$$

COZ041-046-047-076>085-087-088-181400-
...PIKES PEAK/PALMER DIVIDE AND SOUTHERN FOOTHILLS...

CITY           SKY/WX    TMP DP  RH WIND       PRES   REMARKS
COLO. SPRINGS  FAIR      24  19  81 N12       30.17R WCI  13
A. F. ACADEMY  FAIR      17  14  86 N10       30.15R WCI   5
SCHRIEVER AFB  FAIR      25  19  77 N12       30.17R WCI  14
CHEYENNE MTN   FAIR      24  13  63 CALM      30.09R
ELLICOTT       NOT AVBL
FALCON         FAIR      18  16  91 NW5       30.16R WCI  11
FORT CARSON    FAIR      24  19  78 NW10      30.16R WCI  14
LIMON          FAIR      23  19  85 N9        30.16R WCI  13
MONUMENT HILL  FAIR      12  10  92 W6        30.16R WCI   3
CANON CITY     FAIR      32  14  47 W9        30.19R WCI  24
WALSENBURG     FAIR      28  19  69 W8        30.18R WCI  20
TRINIDAD       MOCLDY    31  24  75 MISG      30.18R
$$

COZ042>045-048>051-090-091-181400-
...NORTHEAST COLORADO...

CITY           SKY/WX    TMP DP  RH WIND       PRES   REMARKS
GREELEY ARPT   FAIR      26  19  74 N12       30.18R WCI  16
AKRON          FAIR      25  18  74 NW8       30.15R WCI  16
BURLINGTON     FAIR      33  25  72 NW23G31   30.12R WCI  21
WRAY           NOT AVBL
YUMA           FAIR      32  21  64 NW15G24   30.14R WCI  22
STERLING       FAIR      32  23  69 NW20      30.14R WCI  20
HOLYOKE        FAIR      36  23  60 NW22G28   30.12R
FORT MORGAN    FAIR      29  17  59 NW15      30.17R WCI  18
$$

COZ086-089-092>099-181400-
...SOUTHEAST COLORADO...

CITY           SKY/WX    TMP DP  RH WIND       PRES   REMARKS
PUEBLO         FAIR      31  23  72 N10       30.19R WCI  22
LA JUNTA       FAIR      35  23  61 N22G30    30.19R WCI  23
LAMAR          FAIR      38  22  52 N26G38    30.12R
SPRINGFIELD      N/A     33  26  75 NW21G31   30.12R WCI  21
$$




USA.gov is the U.S. government's official web portal to all federal, state and local government web resources and services.